Retour au catalogue

KUIPER-00616

ActifCommunicationsVLEO
NORAD 69775·PAYLOAD·🇺🇸 United States

Lancé Jul 2, 2026 depuis Cape Canaveral Space Force Station

Loading…

Prochains Passages (prochaines 24 heures)

TLE

FraisSource: CelesTrak SupGP

Époque: Sep 14, 2026, 17:01 UTC

1 69775C 26151N   26257.70945602 -.00961590  00000+0 -82193-1 0  2576
2 69775  51.8958 245.5069 0003271 116.0835 167.6808 14.98101618    16

Suivez KUIPER-00616 en temps réel avec AllMySat

Download on the App Store